North Platte, NE

10:40 AM CDT on August 28, 2016 (GMT -0500)
North Platte Regional-Bird

Weather History for KLBF - September, 2011

Change the Weather History Date:

Thursday, September 8, 2011

  Actual Average Record
Temperature  
Mean Temperature 63 °F 66 °F  
Max Temperature 78 °F 81 °F 101 °F (2013)
Min Temperature 48 °F 50 °F 35 °F (2012)
Degree Days  
Heating Degree Days 2 3  
Month to date heating degree days 22 18  
Since 1 July heating degree days 22 38  
Cooling Degree Days 0 3  
Month to date cooling degree days 24 34  
Year to date cooling degree days 891 729  
Growing Degree Days 13 (Base 50)    
Moisture  
Dew Point 50 °F    
Average Humidity 66    
Maximum Humidity 100    
Minimum Humidity 32    
Precipitation  
Precipitation 0.00 in 0.05 in 2.38 in (1877)
Month to date precipitation T 0.39  
Year to date precipitation 20.12 16.61  
Snow  
Snow 0.00 in 0.00 in 0.00 in (2002)
Month to date snowfall 0.0 0.0  
Since 1 July snowfall 0.0 0.0  
Since 1 September snowfall 0.0 0.0  
Snow Depth 0.00 in    
Sea Level Pressure  
Sea Level Pressure 30.27 in    
Wind  
Wind Speed 4 mph (ESE)    
Max Wind Speed 14 mph    
Max Gust Speed 16 mph    
Visibility 10 miles    
Events      
T = Trace of Precipitation, MM = Missing Value Source: NWS Daily Summary

Daily Weather History Graph

Daily Weather History Graph

Search for Another Location

Airport or City:

Trip Planner

Search our weather history database for the weather conditions in past years. The results will help you decide how hot, cold, wet, or windy it might be!

Date:

Astronomy

Sep. 08, 2011 Rise Set
Actual Time 7:15 AM CDT 8:04 PM CDT
Civil Twilight 6:48 AM CDT 8:31 PM CDT
Nautical Twilight 6:14 AM CDT 9:04 PM CDT
Astronomical Twilight 5:40 AM CDT 9:39 PM CDT
Moon 6:00 PM CDT (9/8) 3:34 AM CDT (9/8)
Length of Visible Light 13h 43m
Length of Day
12h 48m
Waxing Gibbous, 87% of the Moon is Illuminated
Sep 8
Waxing Gibbous
Sep 12
Full
Sep 20
Last Quarter
Sep 27
New
Oct 3
First Quarter

Hourly Weather History & Observations

Time (CDT) Temp. Dew Point Humidity Pressure Visibility Wind Dir Wind Speed Gust Speed Precip Events Conditions
12:53 AM 54.0 °F 48.9 °F 83% 30.25 in 10.0 mi NW 3.5 mph - N/A   Clear
1:53 AM 52.0 °F 48.0 °F 86% 30.27 in 10.0 mi Calm Calm - N/A   Clear
2:53 AM 54.0 °F 48.9 °F 83% 30.25 in 10.0 mi SSE 4.6 mph - N/A   Clear
3:53 AM 51.1 °F 48.0 °F 89% 30.27 in 10.0 mi Calm Calm - N/A   Clear
4:53 AM 51.1 °F 48.9 °F 92% 30.28 in 10.0 mi ENE 4.6 mph - N/A   Clear
5:53 AM 48.9 °F 48.0 °F 97% 30.29 in 10.0 mi East 3.5 mph - N/A   Clear
6:53 AM 48.9 °F 46.9 °F 93% 30.30 in 10.0 mi Calm Calm - N/A   Clear
7:53 AM 50.0 °F 48.0 °F 93% 30.32 in 10.0 mi ENE 3.5 mph - N/A   Clear
8:53 AM 55.0 °F 51.1 °F 86% 30.33 in 10.0 mi ESE 3.5 mph - N/A   Clear
9:53 AM 61.0 °F 52.0 °F 72% 30.33 in 10.0 mi Calm Calm - N/A   Clear
10:53 AM 66.0 °F 53.1 °F 63% 30.33 in 10.0 mi ESE 8.1 mph - N/A   Clear
11:53 AM 69.1 °F 53.1 °F 57% 30.32 in 10.0 mi ESE 8.1 mph - N/A   Clear
12:53 PM 72.0 °F 52.0 °F 49% 30.31 in 10.0 mi SE 6.9 mph - N/A   Clear
1:53 PM 73.9 °F 53.1 °F 48% 30.29 in 10.0 mi SE 8.1 mph - N/A   Clear
3:53 PM 78.1 °F 46.0 °F 32% 30.23 in 10.0 mi SSE 10.4 mph - N/A   Clear
4:53 PM 78.1 °F 46.0 °F 32% 30.21 in 10.0 mi SSE 9.2 mph - N/A   Clear
5:53 PM 75.9 °F 48.9 °F 38% 30.20 in 10.0 mi SE 6.9 mph - N/A   Clear
6:53 PM 71.6 °F 51.8 °F 50% 30.23 in 10.0 mi SE 4.6 mph - N/A   Clear
7:53 PM 66.9 °F 52.0 °F 59% 30.20 in 10.0 mi SE 4.6 mph - N/A   Clear
8:53 PM 59.0 °F 52.0 °F 78% 30.22 in 10.0 mi East 4.6 mph - N/A   Clear
9:53 PM 57.9 °F 50.0 °F 75% 30.22 in 10.0 mi Calm Calm - N/A   Clear
10:53 PM 54.0 °F 48.0 °F 80% 30.23 in 10.0 mi East 3.5 mph - N/A   Clear
11:53 PM 54.0 °F 46.9 °F 77% 30.23 in 10.0 mi Calm Calm - N/A   Clear